Location: Keppel Henge
(44.7900°N, 80.9447°W)
Time: 03:33:00
(UTC-04:00)

N. Korean satellite - Pass Details

Date: 16 October 2017
Orbit: 459 x 517 km, 97.2° (Epoch: 17 October)

Event Time Altitude Azimuth Distance (km) Brightness Sun altitude
Rises 20:11:08 0° 198° (SSW) 2,535 10.4 -17.5°
Reaches altitude 10° 20:13:33 10° 214° (SW) 1,650 9.6 -17.9°
Maximum altitude 20:16:19 21° 266° (W) 1,114 9.3 -18.4°
Drops below altitude 10° 20:19:03 10° 317° (NW) 1,639 9.9 -18.9°
Sets 20:21:28 0° 334° (NNW) 2,513 10.6 -19.3°
